COSMOS 2251 DEB, 33939

Orbit data source: Space-Track

COSMOS 2251 DEB, 33939 is space debris in LEO originally from a launch on Wed, 16 Jun 1993 UTC launched from the Plesetsk Missile And Space Complex (PKMTR). The debris from Iridium 33, an American commercial communications satellite, has been tracked extensively since its accidental collision with the defunct Russian satellite Cosmos 2251 in 2009. This event, occurring at high speed in low Earth orbit (LEO), generated thousands of pieces of space debris, significantly increasing the risk of further collisions. The Iridium 33 debris cloud has impacted space traffic management and orbital debris mitigation strategies, making it a subject of ongoing study in space situational awareness.

Loading next visibility...
Identifier
33939, 1993-036EU
Orbit
LEO
Country
Flag of CISCIS
Related business
Manufacturer
Unknown
Mission
Spacecraft
Bus & Motor
Unknown
Mass
Unknown
Launch date (UTC)
1993-06-16 (33 years ago)
Launch vehicle
Unknown
Launch site
Plesetsk Missile And Space Complex (PKMTR)
Object type
Payload
Rocket body
Debris
Shape & HBR
Unknown shape, 0.1 m
Radar Cross Section
Medium (>0.1 m² and <1 m²)

Expand to show TLE details & history
Last TLE update: 6 hours ago

TLE from 6 hours ago
0 COSMOS 2251 DEB
1 33939U 93036EU  26238.12202968  .00147202  00000-0  35337-2 0  9998
2 33939  73.9904 264.1735 0012641 304.0668  55.9340 15.40640509926412
Epoch: 2026-08-26T02:55Z
TLE epoch observation values (Epoch: 2026-08-26T02:55:43.364Z)
Latitude
0.00006°
Longitude
-114.13673°
Altitude
442.127 km
Speed
7.65 km/s
True Right ascension
17h 36m 41s
True Declination
0° 00' 00"
Sunlit
Object was in daylight at epoch
Visualization orbit readout
Latitude
Unknown
Longitude
Unknown
Altitude
Unknown
Speed
Unknown
Apparent Right ascension
Unknown
Apparent Declination
Unknown
Sunlit
N/A
Visualization observer readout
Local Sidereal Time
00:34:51
Azimuth
Unknown
Elevation
Unknown
Doppler factor
Unknown
Orbital elements
Apogee altitude
450.352 km
Perigee altitude
433.11 km
Semi-major axis
6,819.868 km
Eccentricity
0.00126
Inclination
73.9904°
RAAN
264.1735°
Arg. of periapsis
304.0668°
True anomaly
56.0541°
Mean anomaly
55.934°
Eccentric anomaly
55.99404°
Mean motion
3.85371 °/min
Orbital period
93.42 mins
BSTAR
0.0035337
Loading maneuver chart data...
Computing Atmospheric mass density...
Loading historical data...
Loading historical data...
Loading historical data...
Loading historical data...
Loading historical data...
Loading historical data...
Loading historical data...

Documentation

Showing up to 5 results
|